User: anonymous   Login
Location: Bushey
(51.6333°N, 0.3667°W)
Time: 15:45:07
(UTC+00:00)
Language:

MetOp-A - Orbit

View from above orbital plane
View from above orbital plane
View from above satellite
View from above satellite

Ground track
Ground track

The orbit data is extracted from the following two-line orbital elements,

1 29499U 06044A   21132.22421510  .00000011  00000-0  23967-4 0  9996
2 29499  98.4752 172.9344 0001624  77.3650   4.3494 14.21498196755591
Epoch (UTC): 12 May 2021 05:22:52
Eccentricity: 0.0001624
inclination: 98.4752°
perigee height: 819 km
apogee height: 821 km
right ascension of ascending node: 172.9344°
argument of perigee: 77.3650°
revolutions per day: 14.21498196
mean anomaly at epoch: 4.3494°
orbit number at epoch: 75559

The dashed part of the orbit path shows where the satellite is in the earth's shadow,  

DLR